Weather History for KEHO - October, 2013

Change the Weather History Date:

Sunday, October 20, 2013

  Actual Average (KHKY) Record (KHKY)
Temperature  
Mean Temperature 52 °F -  
Max Temperature 65 °F 66 °F 85 °F (1953)
Min Temperature 40 °F 44 °F 27 °F (1972)
Degree Days  
Heating Degree Days 12    
Growing Degree Days 2 (Base 50)    
Moisture  
Dew Point 45 °F    
Average Humidity 79    
Maximum Humidity 100    
Minimum Humidity 43    
Precipitation  
Precipitation 0.00 in - - ()
Sea Level Pressure  
Sea Level Pressure 30.04 in    
Wind  
Wind Speed 1 mph (NE)    
Max Wind Speed 7 mph    
Max Gust Speed -    
Visibility 7 miles    
Events Fog    
Averages and records for this station are not official NWS values.
T = Trace of Precipitation, MM = Missing Value Source: NWS Daily Summary

Daily Weather History Graph

Daily Weather History Graph

Search for Another Location

Airport or City:

Trip Planner

Search our weather history database for the weather conditions in past years. The results will help you decide how hot, cold, wet, or windy it might be!

Date:

Astronomy

Oct. 20, 2013 Rise Set
Actual Time 7:37 AM EDT 6:44 PM EDT
Civil Twilight 7:11 AM EDT 7:10 PM EDT
Nautical Twilight 6:41 AM EDT 7:39 PM EDT
Astronomical Twilight 6:12 AM EDT 8:09 PM EDT
Moon 7:56 PM EDT (10/20) 9:09 AM EDT (10/20)
Length of Visible Light 11h 59m
Length of Day
11h 07m
Full, 97% of the Moon is Illuminated
Oct 20
Full
Oct 26
Last Quarter
Nov 3
New
Nov 10
First Quarter
Nov 17
Full

Hourly Weather History & Observations

Time (EDT) Temp. Windchill Dew Point Humidity Pressure Visibility Wind Dir Wind Speed Gust Speed Precip Events Conditions
12:15 AM 48.9 °F - 48.7 °F 99% 29.94 in 0.5 mi Calm Calm - N/A Fog Fog
12:35 AM 48.2 °F - 48.0 °F 99% 29.94 in 0.2 mi Calm Calm - N/A Fog Fog
12:55 AM 48.6 °F - 48.6 °F 100% 29.95 in 0.2 mi Calm Calm - N/A Fog Fog
1:15 AM 48.2 °F - 48.2 °F 100% 29.95 in 0.2 mi Calm Calm - N/A Fog Fog
1:35 AM 48.2 °F - 48.2 °F 100% 29.95 in 0.2 mi Calm Calm - N/A Fog Fog
1:55 AM 48.2 °F - 48.2 °F 100% 29.96 in 0.2 mi Calm Calm - N/A Fog Fog
2:15 AM 47.7 °F - 47.7 °F 100% 29.97 in 0.2 mi Calm Calm - N/A Fog Fog
2:35 AM 46.8 °F - 46.8 °F 100% 29.97 in 0.2 mi Calm Calm - N/A Fog Fog
2:55 AM 46.0 °F - 46.0 °F 100% 29.97 in 0.5 mi Calm Calm - N/A Fog Fog
3:15 AM 45.7 °F - 45.7 °F 100% 29.97 in 2.5 mi Calm Calm - N/A   Clear
3:35 AM 44.8 °F - 44.8 °F 100% 29.97 in 1.8 mi Calm Calm - N/A   Mist
3:55 AM 45.1 °F - 45.1 °F 100% 29.97 in 3.0 mi Calm Calm - N/A   Clear
4:15 AM 43.7 °F - 43.7 °F 100% 29.98 in 0.5 mi Calm Calm - N/A Fog Fog
4:35 AM 43.7 °F - 43.7 °F 100% 29.99 in 0.5 mi Calm Calm - N/A Fog Fog
4:55 AM 43.2 °F - 43.2 °F 100% 29.99 in 1.2 mi Calm Calm - N/A   Mist
5:15 AM 42.8 °F - 42.8 °F 100% 29.99 in 7.0 mi Calm Calm - N/A   Clear
5:35 AM 42.4 °F - 42.4 °F 100% 29.99 in 4.0 mi Calm Calm - N/A   Clear
5:55 AM 41.7 °F 39.8 °F 41.7 °F 100% 30.00 in 1.0 mi NW 3.5 mph - N/A   Mist
6:15 AM 41.4 °F - 41.4 °F 100% 30.00 in 0.5 mi Calm Calm - N/A Fog Fog
6:35 AM 41.9 °F - 41.9 °F 100% 30.01 in 1.0 mi Calm Calm - N/A   Mist
6:55 AM 43.3 °F - 43.3 °F 100% 30.02 in 0.5 mi Calm Calm - N/A Fog Fog
7:15 AM 40.6 °F - 40.6 °F 100% 30.02 in 0.2 mi Calm Calm - N/A Fog Fog
7:35 AM 40.6 °F - 40.6 °F 100% 30.03 in 0.2 mi Calm Calm - N/A Fog Fog
7:55 AM 41.2 °F 39.2 °F 41.2 °F 100% 30.03 in 2.5 mi NE 3.5 mph - N/A   Clear
8:15 AM 41.0 °F - 41.0 °F 100% 30.04 in 7.0 mi Calm Calm - N/A   Clear
8:35 AM 43.7 °F 42.1 °F 43.7 °F 100% 30.05 in 10.0 mi ENE 3.5 mph - N/A   Clear
8:55 AM 45.9 °F - 45.9 °F 100% 30.06 in 10.0 mi Calm Calm - N/A   Clear
9:15 AM 46.0 °F 44.8 °F 46.0 °F 100% 30.07 in 10.0 mi NNE 3.5 mph - N/A   Clear
9:35 AM 47.7 °F - 47.7 °F 100% 30.08 in 10.0 mi NNE 4.6 mph - N/A   Clear
9:55 AM 48.4 °F - 48.2 °F 99% 30.08 in 10.0 mi NNE 3.5 mph - N/A   Clear
10:15 AM 51.3 °F - 46.9 °F 85% 30.08 in 10.0 mi NE 3.5 mph - N/A   Clear
10:35 AM 53.2 °F - 44.8 °F 73% 30.09 in 10.0 mi NE 5.8 mph - N/A   Clear
10:55 AM 54.7 °F - 45.0 °F 70% 30.09 in 10.0 mi NE 6.9 mph - N/A   Clear
11:15 AM 55.2 °F - 43.7 °F 65% 30.09 in 10.0 mi NE 6.9 mph - N/A   Clear
11:35 AM 56.7 °F - 44.1 °F 63% 30.10 in 10.0 mi East 5.8 mph - N/A   Clear
11:55 AM 57.0 °F - 43.3 °F 60% 30.09 in 10.0 mi NNE 4.6 mph - N/A   Clear
12:15 PM 58.3 °F - 43.2 °F 57% 30.09 in 10.0 mi ENE 4.6 mph - N/A   Clear
12:35 PM 58.6 °F - 43.5 °F 57% 30.09 in 10.0 mi NNE 4.6 mph - N/A   Clear
12:55 PM 59.9 °F - 42.3 °F 52% 30.09 in 10.0 mi East 3.5 mph - N/A   Clear
1:15 PM 61.2 °F - 42.4 °F 50% 30.08 in 10.0 mi NNE 4.6 mph - N/A   Clear
1:35 PM 61.5 °F - 41.2 °F 47% 30.07 in 10.0 mi Calm Calm - N/A   Clear
1:55 PM 61.9 °F - 43.3 °F 51% 30.07 in 10.0 mi NNE 3.5 mph - N/A   Clear
2:15 PM 62.1 °F - 43.5 °F 51% 30.06 in 10.0 mi Calm Calm - N/A   Clear
2:35 PM 62.6 °F - 43.3 °F 49% 30.05 in 10.0 mi SSE 4.6 mph - N/A   Clear
2:55 PM 62.6 °F - 42.6 °F 48% 30.05 in 10.0 mi South 3.5 mph - N/A   Clear
3:15 PM 63.9 °F - 42.3 °F 45% 30.04 in 10.0 mi Calm Calm - N/A   Clear
3:35 PM 64.2 °F - 43.5 °F 47% 30.04 in 10.0 mi Calm Calm - N/A   Clear
3:55 PM 64.0 °F - 43.3 °F 47% 30.04 in 10.0 mi Calm Calm - N/A   Clear
4:15 PM 65.3 °F - 43.3 °F 45% 30.04 in 10.0 mi SE 3.5 mph - N/A   Clear
4:35 PM 63.9 °F - 41.4 °F 44% 30.04 in 10.0 mi SW 3.5 mph - N/A   Clear
4:55 PM 64.4 °F - 41.2 °F 43% 30.04 in 10.0 mi SSE 3.5 mph - N/A   Clear
5:15 PM 64.4 °F - 42.4 °F 45% 30.05 in 10.0 mi SSE 3.5 mph - N/A   Clear
5:35 PM 63.7 °F - 42.8 °F 47% 30.05 in 10.0 mi Calm Calm - N/A   Clear
5:55 PM 63.5 °F - 44.8 °F 51% 30.05 in 10.0 mi Calm Calm - N/A   Clear
6:15 PM 61.9 °F - 46.4 °F 57% 30.05 in 10.0 mi Calm Calm - N/A   Clear
6:35 PM 61.3 °F - 46.6 °F 58% 30.05 in 10.0 mi ESE 3.5 mph - N/A   Clear
6:55 PM 60.1 °F - 45.9 °F 59% 30.05 in 10.0 mi ESE 3.5 mph - N/A   Clear
7:15 PM 58.5 °F - 46.2 °F 64% 30.06 in 10.0 mi Calm Calm - N/A   Clear
7:35 PM 57.2 °F - 46.0 °F 66% 30.07 in 10.0 mi Calm Calm - N/A   Clear
7:55 PM 55.6 °F - 46.9 °F 73% 30.07 in 10.0 mi Calm Calm - N/A   Clear
8:15 PM 53.1 °F - 46.6 °F 79% 30.07 in 10.0 mi ENE 3.5 mph - N/A   Clear
8:35 PM 53.4 °F - 46.0 °F 76% 30.08 in 10.0 mi NE 3.5 mph - N/A   Clear
8:55 PM 52.2 °F - 46.8 °F 82% 30.08 in 10.0 mi NE 3.5 mph - N/A   Clear
9:15 PM 50.7 °F - 47.3 °F 88% 30.09 in 10.0 mi NNE 3.5 mph - N/A   Clear
9:35 PM 51.3 °F - 47.3 °F 86% 30.09 in 10.0 mi NNE 3.5 mph - N/A   Clear
9:55 PM 49.6 °F - 46.4 °F 89% 30.10 in 10.0 mi NNE 3.5 mph - N/A   Clear
10:15 PM 49.5 °F - 46.4 °F 89% 30.10 in 10.0 mi NNE 3.5 mph - N/A   Clear
10:35 PM 47.8 °F - 45.5 °F 92% 30.11 in 10.0 mi NNE 3.5 mph - N/A   Clear
10:55 PM 47.7 °F - 45.1 °F 91% 30.11 in 10.0 mi NNE 3.5 mph - N/A   Clear
11:15 PM 46.8 °F - 44.4 °F 92% 30.11 in 10.0 mi NNE 4.6 mph - N/A   Clear
11:35 PM 46.0 °F 43.9 °F 44.4 °F 94% 30.11 in 10.0 mi NNE 4.6 mph - N/A   Clear
11:55 PM 45.9 °F 43.6 °F 44.4 °F 95% 30.11 in 10.0 mi NE 4.6 mph - N/A   Clear